This is the latest recevied weather packets stored in our database for station/object KE4EST. If no packets are shown the sender has not sent any weather packets the latest 10 day(s).
| Time | Temp. | Humidity | Pressure | Rain* | Wind** | Luminosity | Snow |
|---|---|---|---|---|---|---|---|
| 1778133293 | 15.56° C | 99% | 1012.9 hPa | 0 mm | - | 0 W/m² | - |
| 1778132989 | 15.56° C | 99% | 1012.8 hPa | 0 mm | - | 0 W/m² | - |
| 1778132685 | 15.56° C | 99% | 1012.2 hPa | 0 mm | - | 0 W/m² | - |
| 1778132383 | 15.56° C | 99% | 1012.1 hPa | 0 mm | - | 0 W/m² | - |
| 1778132081 | 15.56° C | 99% | 1013 hPa | 0 mm | - | 0 W/m² | - |
| 1778131779 | 15.56° C | 99% | 1013.1 hPa | 1.27 mm | - | 0 W/m² | - |
| 1778131476 | 16.11° C | 99% | 1013.3 hPa | 3.05 mm | - | 0 W/m² | - |
| 1778131173 | 16.11° C | 99% | 1013.5 hPa | 1.78 mm | - | 0 W/m² | - |
| 1778130871 | 16.11° C | 99% | 1013.6 hPa | 0 mm | - | 0 W/m² | - |
| 1778130567 | 16.11° C | 99% | 1014.3 hPa | 0 mm | - | 0 W/m² | - |
| 1778130264 | 16.11° C | 99% | 1013.6 hPa | 1.78 mm | - | 0 W/m² | - |
| 1778129961 | 15.56° C | 99% | 1013.8 hPa | 1.78 mm | - | 0 W/m² | - |
| 1778129657 | 15.56° C | 99% | 1014.2 hPa | 0 mm | - | 0 W/m² | - |
| 1778129355 | 15.56° C | 99% | 1014.2 hPa | 1.27 mm | - | 0 W/m² | - |
| 1778129051 | 16.11° C | 99% | 1013.6 hPa | 3.05 mm | - | 0 W/m² | - |
| 1778128747 | 15.56° C | 99% | 1013.7 hPa | 6.1 mm | - | 0 W/m² | - |
| 1778128438 | 15.56° C | 99% | 1013.7 hPa | 3.05 mm | - | 0 W/m² | - |
| 1778128134 | 15.56° C | 99% | 1014.1 hPa | 4.32 mm | - | 0 W/m² | - |
| 1778127830 | 15.56° C | 99% | 1014.3 hPa | 7.11 mm | - | 0 W/m² | - |
| 1778127526 | 15.56° C | 99% | 1014.2 hPa | 4.32 mm | - | 0 W/m² | - |
| 1778127223 | 16.11° C | 99% | 1014.7 hPa | 0 mm | - | 0 W/m² | - |
| 1778126921 | 16.11° C | 99% | 1014.2 hPa | 0 mm | - | 0 W/m² | - |
| 1778126616 | 16.11° C | 99% | 1014.1 hPa | 1.78 mm | - | 0 W/m² | - |
| 1778126312 | 16.11° C | 99% | 1014.5 hPa | 4.83 mm | - | 0 W/m² | - |
| 1778126008 | 16.11° C | 99% | 1014.5 hPa | 8.89 mm | - | 0 W/m² | - |
* Rain latest hour (hover to see other rain measurements)
** Current wind speed in m/s (hover to see current wind gust speed)